Home   Weather   Paramaribo   Past weeks
Flag for Suriname

Past Weather in Paramaribo, Suriname — Yesterday and Last 2 Weeks

Now
81 °F

Sprinkles. Scattered clouds.


Feels Like: 87 °F
Forecast: N/A
Wind: 9 mph from East

Location: Johan A. Pengel

Current Time: Mar 28, 2020 at 7:05:29 pm

Latest Report: Mar 28, 2020 at 6:00 pm


Visibility: 5 mi

Pressure: 29.80 "Hg

Humidity: 89%

Dew Point: 77 °F

Location of ParamariboLocation

Past Weather in Paramaribo — Graph

°F

Paramaribo Temperature Yesterday

Maximum temperature yesterday: 88 °F (at 2:00 pm)
Minimum temperature yesterday: 75 °F (at 6:00 am)
Average temperature yesterday: 80 °F

High & Low Weather Summary for the Past Weeks

 TemperatureHumidityPressure
High95 °F (Mar 19, 3:00 pm)100% (Mar 14, 6:00 am)30.04 "Hg (Mar 14, 6:00 am)
Low70 °F (Mar 25, 5:00 am)20% (Mar 25, 8:00 pm)29.77 "Hg (Mar 26, 4:00 pm)
Average81 °F78%29.89 "Hg
* Reported Mar 13 6:00 pm — Mar 28 6:00 pm, Paramaribo. Weather by CustomWeather, © 2020

Note: Actual official high and low records may vary slightly from our data, if they occured in-between our weather recording intervals... More about our weather records

Paramaribo Weather History for the Previous 24 Hours

Scroll right to see more
 ConditionsComfort  
Time TempWeatherWind HumidityBarometerVisibility
6:00 pm
Sat, Mar 28
81 °FSprinkles. Scattered clouds.9 mph89%29.80 "Hg5 mi
5:00 pm81 °FSprinkles. Scattered clouds.9 mph94%29.80 "Hg5 mi
4:00 pm81 °FBroken clouds.10 mph89%29.80 "HgN/A
3:05 pm77 °FLots of rain. Broken clouds.21 mph100%29.83 "Hg1 mi
2:00 pm86 °FScattered showers. Scattered clouds.13 mph70%29.83 "HgN/A
1:00 pm86 °FScattered showers. Scattered clouds.16 mph70%29.89 "HgN/A
12:00 pm86 °FScattered showers. Scattered clouds.7 mph75%29.89 "HgN/A
11:00 am84 °FSprinkles. Scattered clouds.8 mph74%29.92 "HgN/A
10:00 am81 °FLight rain. Broken clouds.8 mph89%29.89 "Hg5 mi
9:00 am77 °FLight rain. Broken clouds.5 mph100%29.89 "Hg4 mi
8:00 am77 °FScattered clouds.3 mph94%29.86 "HgN/A
7:00 am75 °FScattered clouds.3 mph100%29.83 "HgN/A
6:00 am75 °FPassing clouds.5 mph100%29.80 "HgN/A
5:00 am75 °FPassing clouds.3 mph94%29.80 "HgN/A
4:00 am75 °FLight rain. Passing clouds.3 mph94%29.80 "Hg5 mi
3:00 am75 °FLight rain. Passing clouds.1 mph100%29.80 "HgN/A
2:00 am77 °FPassing clouds.1 mph94%29.83 "HgN/A
1:00 am77 °FPassing clouds.3 mph94%29.86 "HgN/A
12:00 am77 °FPassing clouds.3 mph94%29.86 "HgN/A
11:00 pm
Fri, Mar 27
77 °FPassing clouds.6 mph94%29.86 "HgN/A
10:00 pm79 °FPassing clouds.2 mph94%29.83 "HgN/A
9:00 pm79 °FPassing clouds.3 mph89%29.83 "HgN/A
8:00 pm79 °FPassing clouds.5 mph89%29.80 "HgN/A
7:00 pm81 °FScattered showers. Partly cloudy.2 mph84%29.77 "HgN/A
Weather by CustomWeather, © 2020

See weather overview

Advertising